User: anonymous   Login
Location: Caracas
(10.5033°N, 66.8422°W)
Time: 19:53:02
(UTC-04:00)
Language:

Tiangong 2 - Orbit

View from above orbital plane
View from above orbital plane
View from above satellite
View from above satellite

Ground track
Ground track

The orbit data is extracted from the following two-line orbital elements,

1 41765U 16057A   17327.45880806  .00005915  00000-0  76868-4 0  9990
2 41765  42.7827 128.4714 0004250 275.8068 112.3522 15.59589390 67844
Epoch (UTC): 23 November 2017 11:00:41
Eccentricity: 0.0004250
inclination: 42.7827°
perigee height: 386 km
apogee height: 392 km
right ascension of ascending node: 128.4714°
argument of perigee: 275.8068°
revolutions per day: 15.59589390
mean anomaly at epoch: 112.3522°
orbit number at epoch: 6784

The dashed part of the orbit path shows where the satellite is in the earth's shadow,  

DLR